Home   Weather   Pulheim   Past weeks

Flag for Germany Past Weather in Pulheim, North Rhine-Westphalia, Germany — Yesterday and Last 2 Weeks

Now
61 °F

Passing clouds.


Feels Like: 61 °F
Forecast: 52 / 77 °F
Wind: 8 mph from West

Location: Noervenich

Current Time: Sep 1, 2016 at 4:02:10 AM

Latest Report: Sep 1, 2016 at 3:20 AM


Visibility: N/A

Pressure: 30.15 "Hg

Humidity: 77%

Dew Point: 54 °F

Location of PulheimLocation

Past Weather in Pulheim — Graph

°F

Pulheim Temperature Yesterday

Maximum temperature yesterday: 81 °F (at 3:20 PM)
Minimum temperature yesterday: 50 °F (at 5:20 AM)
Average temperature yesterday: 65 °F

High & Low Weather Summary for the Past Weeks

 TemperatureHumidityPressure
High91 °F (Aug 25, 3:20 PM)100% (Aug 17, 6:20 AM)30.33 "Hg (Aug 17, 6:20 AM)
Low50 °F (Aug 17, 6:20 AM)32% (Aug 25, 5:20 PM)29.77 "Hg (Aug 18, 4:20 PM)
Average70 °F66%30.05 "Hg
* Reported Aug 17 2:20 AM — Sep 1 2:20 AM, Pulheim, Weather by CustomWeather, © 2016

Note: Actual official high and low records may vary slightly from our data, if they occured in-between our weather recording intervals... More about our weather records

Advertising

Pulheim Weather History for the Previous 24 Hours

Scroll right to see more
 ConditionsComfort  
Time TempWeatherWind HumidityBarometerVisibility
2:20 AM
Thu, Sep 1
61 °FPassing clouds.9 mph77%30.15 "HgN/A
1:20 AM61 °FPassing clouds.1 mph77%30.15 "HgN/A
12:20 AM63 °FPassing clouds.1 mph73%30.15 "HgN/A
11:20 PM
Wed, Aug 31
63 °FPassing clouds.1 mph77%30.15 "HgN/A
10:20 PM64 °FPassing clouds.5 mph73%30.15 "HgN/A
9:20 PM68 °FPassing clouds.3 mph64%30.15 "HgN/A
8:20 PM72 °FScattered clouds.5 mph57%30.12 "HgN/A
7:20 PM77 °FPassing clouds.9 mph44%30.09 "HgN/A
6:20 PM79 °FScattered clouds.13 mph45%30.09 "HgN/A
5:20 PM77 °FScattered clouds.5 mph47%30.12 "HgN/A
4:20 PM79 °FScattered clouds.5 mph42%30.12 "HgN/A
3:20 PM81 °FScattered clouds.3 mph39%30.12 "HgN/A
2:20 PM79 °FPassing clouds.3 mph42%30.12 "HgN/A
1:20 PM77 °FPassing clouds.3 mph42%30.12 "HgN/A
12:20 PM75 °FPassing clouds.2 mph44%30.15 "HgN/A
11:20 AM73 °FPassing clouds.5 mph50%30.15 "HgN/A
10:20 AM64 °FPassing clouds.7 mph64%30.15 "HgN/A
9:20 AM61 °FPassing clouds.6 mph68%30.15 "HgN/A
8:20 AM57 °FPassing clouds.3 mph72%30.15 "HgN/A
7:20 AM52 °FPassing clouds.5 mph88%30.15 "HgN/A
6:20 AM50 °FPassing clouds.2 mph94%30.15 "HgN/A
5:20 AM50 °FPassing clouds.3 mph94%30.15 "HgN/A
4:20 AM52 °FPassing clouds.2 mph88%30.18 "HgN/A
Weather by CustomWeather, © 2016

See weather overviewHow to use our weather pages